World > North America > United States > Oregon > Bend   City of Bend, Oregon

Bend, OR Hourly Weather Updates

Feedback E-mail the Weather

Quick Clicks

Bend, OR Weather Maps

°F °C°F °C
Bend Weather Map
UTC Time: 6/14/2024, 08:34
Your Time:

Bend, OR Regional Weather

Expires:202406140900;;990745
ASUS46 KPQR 140810
RWROR 

OREGON REGIONAL WEATHER ROUNDUP
NATIONAL WEATHER SERVICE PORTLAND OR
100 AM PDT FRI JUN 14 2024

NOTE: "FAIR" INDICATES FEW OR NO CLOUDS BELOW 12,000 FEET WITH
NO SIGNIFICANT WEATHER AND/OR OBSTRUCTIONS TO VISIBILITY.


ORZ029>031-041-044-049-050-061>064-502-503-505>511-140900-
EASTERN OREGON

  
CITY           SKY/WX    TMP DP  RH WIND       PRES   REMARKS
MADRAS         CLEAR     50  39  66 NW3       30.07S                  
REDMOND        CLEAR     58  37  45 NW8       30.06S                  
BEND           CLEAR     55  34  44 CALM      30.07R                  
PRINEVILLE     PTCLDY    55  32  41 W5        30.07F                  
KLAMATH FALLS  CLEAR     55  40  56 SW5       30.10R                  
LAKEVIEW       CLEAR     48  37  65 SW3       30.11S                  
HERMISTON      CLOUDY    67  39  35 SW17G28   29.94R                  
PENDLETON      CLOUDY    67  32  27 SW8G17    29.97R                  
JOHN DAY       MOCLDY    60  33  35 W9        30.03F                  
MEACHAM        CLOUDY    54  36  50 CALM      30.03S                  
LA GRANDE      MOCLDY    63  34  33 W15       29.99R                  
BAKER CITY     PTCLDY    60  33  36 NW5       29.98R                  
BURNS          CLEAR     60  35  39 W9        30.02R                  
ROME             N/A     63  30  28 SE9       29.98R                  
ONTARIO        MOCLDY    76  37  24 N18G30    29.83R                  
$$


OTHER REGIONAL REPORTS
  
CITY           SKY/WX    TMP DP  RH WIND       PRES   REMARKS
SEATTLE        PTCLDY    52  42  69 W3        30.11R                  
SPOKANE        CLOUDY    68  39  34 SW5       29.89S                  
VANCOUVER BC   MOCLDY    59  45  58 SW14      30.01R                  
PRINCE GEORGE  CLOUDY    52  41  66 N7        29.81F                  
DAWSON CREEK   CLEAR     37  32  81 SW3       29.86F                  
WHITEHORSE     MOCLDY    57  39  51 N6        29.92R                  
BOISE          PTCLDY    69  43  38 W6        29.84R                  
REDDING        CLEAR     77  60  55 CALM      29.91S                  
SAN FRANCISCO  PTCLDY    53  47  79 W7        30.03F                  

$$

  

SKY/WX - Weather  TMP - Temperature  DP - Dew Point  RH - Humidity
WIND - Wind Direction/Speed PRES - Barometric Pressure VSB - Visibility
WCI - Wind Chill Index E13G22 Wind - East Wind 13 mph/Gusts of 22 mph

Trending Headlines

Trending Entertainment Headlines

Bend Radar Loop

Use the map search tool if you want to place a location marker on the radar map...

Bend Quick Facts

National Two Day Weather Forecast


E-mail the Bend Weather Forecast

Voice your opinion or tell us about page issues...